sat.trackr.live / text

‹ back to catalog

AC1-003

NORAD 66689 · 2025-276Z

PAYLOAD ACTIVE UNKNOWN

§ Identity

Operator
Country
UK
Launch date
2025-11-28
Launch site
AFWTR
Launch vehicle
Mass (kg)
RCS (m²)

External: N2YO · Heavens-Above · Gunter

§ Orbital elements

Epoch: 2026-09-20T22:35:36.097728Z

Period
94.83 min
Inclination
97.4121°
Eccentricity
0.0003997
Mean motion
15.18567360 rev/d
Perigee alt
507.4 km
Apogee alt
512.9 km
Semi-major
6,888.3 km
B*
6.6442e-5
RAAN
335.3959°
Arg perigee
58.4397°
Mean anomaly
301.7227°
Rev number
4,493

§ Raw data

AC1-0031 66689U 25276Z   26263.94139002  .00001306  00000+0  66442-4 0  99992 66689  97.4121 335.3959 0003997  58.4397 301.7227 15.18567360 44936

JSON: /api/v1/satellites/66689 · /tle

For live sub-satellite position, see the globe view (requires WebGL).

§ Visibility from observer

Set your observer location to see the next 7 days of passes ≥ 10°. The values pass through the URL so the page stays shareable.

No JS? Fill the form by hand. The geolocation button needs JavaScript.